Regional Weather Roundup
Issued by NWS Wakefield, VA

Home | Current Version | Previous Version | Graphics & Text | Print | Product List | Glossary On
Versions: 1 2 3 4 5 6 7 8 9 10 11 12 13 14 15 16 17 18 19 20 21 22 23 24 25 26 27 28 29 30 31 32 33 34 35 36 37 38 39 40 41 42 43 44 45 46 47 48 49 50
000
ASUS41 KAKQ 291015
RWRAKQ

REGIONAL WEATHER ROUNDUP
NATIONAL WEATHER SERVICE WAKEFIELD VA
600 AM EDT FRI JUL 29 2016

Note: "fair" indicates few or no clouds below 12,000 feet with no
significant weather and/or obstructions to visibility. * = Denotes
station may not report precipitation (e.g., rain,snow,etc.),
thunder or fog.

VAZ042-051-052>054-056-291100-
NORTHERN VIRGINIA

CITY           SKY/WX    TMP DP  RH WIND       PRES   REMARKS
WASH NATIONAL  CLOUDY    75  72  90 N13       29.82R
DULLES         CLOUDY    72  70  93 NW8       29.84R
FORT BELVOIR   MOCLDY    74  72  91 NW7       29.81R
QUANTICO       CLOUDY    75  72  88 N8        29.82R
FREDERICKSBRG* CLOUDY    74  74 100 NW5       29.81R
STAFFORD*      CLOUDY    72  70  93 NW5       29.86R
WARRENTON      CLOUDY    73  67  82 N8        29.83R
CULPEPER*      CLOUDY    72  71  96 N3        29.85R
MANASSAS*      CLOUDY    72  72 100 N9        29.83R
LEESBURG*      CLOUDY    72  72 100 NW8       29.86R
WINCHESTER     CLOUDY    70  68  94 NW7       29.88R
FRONT ROYAL*   CLOUDY    68  68 100 CALM      29.88R
LURAY*         CLOUDY   N/A N/A N/A CALM      29.89R
$$

VAZ048-049-060>072-079>083-291100-
CENTRAL AND SOUTH CENTRAL VIRGINIA

CITY           SKY/WX    TMP DP  RH WIND       PRES   REMARKS
RICHMOND       CLOUDY    75  73  93 W10       29.81R
CHESTERFIELD*  CLOUDY    75  63  64 W8        29.83R
PETERSBURG*    CLOUDY    77  77 100 W6        29.82S
HANOVER        CLOUDY    74  72  93 NW9       29.83R
TAPPAHANNOCK*  CLOUDY    75  75 100 E5        29.81R FOG
QUINTON*       FAIR      74  74 100 W5        29.79R
CHARLOTTSVILLE FAIR      73  71  93 CALM      29.85R
GORDONSVILLE*  PTSUNNY   72  72  99 W6        29.83R
ORANGE*          N/A     73  73 100 CALM      29.85R
LOUISA*        CLOUDY    75  75 100 CALM      29.83R FOG
BUMPASS*       CLOUDY    73  73 100 CALM      29.83R
FARMVILLE*     FAIR     N/A N/A N/A CALM      29.84R
CREWE*         NOT AVBL
FORT PICKETT*  CLOUDY    72  71  98 W12       29.84R
CHASE CITY*    FAIR      73  71  95 CALM      29.85S
CLARKSVILLE*   FAIR      73  73 100 CALM      29.85S
SOUTH HILL*    FAIR      75  72  91 W3        29.89S
LAWRENCEVILLE* FAIR      74  73  94 CALM      29.84R
EMPORIA*       FAIR      75  72  88 CALM      29.83F
$$

VAZ088>098-291100-
SOUTHEAST VIRGINIA

CITY           SKY/WX    TMP DP  RH WIND       PRES   REMARKS
NORFOLK        FAIR      81  71  71 SW12      29.79R
VIRGINIA BEACH FAIR      85  70  60 SW10      29.79R
NORFOLK NAVAL  FAIR      81  71  71 SW9       29.80R
WEST POINT*    FAIR      75  74  98 W7        29.81R
SALUDA*        FAIR      74  74 100 W3        29.78R
NEWPORT NEWS   FAIR      80  73  79 SW12      29.79R
LANGLEY AFB    FAIR      80  73  79 SW9       29.79R
FORT EUSTIS    FAIR      79  74  84 VRB6      29.79R
WILLIAMSBURG*  FAIR      81  75  83 W6        29.80R
HR EXEC AP*    FAIR      79  72  78 SW7       29.82R
FRANKLIN*      FAIR      77  71  81 SW6       29.82R
US460-WAKEFLD  FAIR      76  72  87 VRB6      29.81R
$$

VAZ020-022-025-037-045-291100-
WEST CENTRAL AND SOUTHWEST VIRGINIA

CITY           SKY/WX    TMP DP  RH WIND       PRES   REMARKS
STAUNTON*      FAIR      67  67  99 CALM      29.92R
WAYNESBORO*    FAIR      68  67  96 CALM      29.91R
HOT SPRINGS VA NOT AVBL
LYNCHBURG      MOCLDY    71  71 100 CALM      29.89R FOG
DANVILLE       CLOUDY    77  70  79 W6        29.87S
SOUTH BOSTON*  CLOUDY   N/A N/A N/A CALM      29.85S
MARTINSVILLE   FAIR      71  67  86 CALM      29.93S
ROANOKE        FAIR      71  68  90 W12       29.92S
BLACKSBURG     FAIR      68  66  94 W6        30.01R
DUBLIN*        CLOUDY    69  67  92 W3        30.01R
MARION*        DRIZZLE   68  67  96 W7        30.06R
HILLSVILLE*    FAIR      66  65  97 NW7       30.01R
RICHLANDS*     CLOUDY    66  66 100 W6        30.05S
WISE*          CLOUDY    66  64  94 W7        30.07S
ABINGDON*      CLOUDY    70  69  98 W5        30.04R
$$

MDZ021>025-VAZ099-100-291100-
SOUTHERN MARYLAND AND THE DELMARVA PENINSULA

CITY           SKY/WX    TMP DP  RH WIND       PRES   REMARKS
PATUXENT RIVER CLOUDY    75  73  93 NW5       29.79R
BAY BRIDGE APT RAIN      73  73 100 N5        29.80R FOG
LEONARDTOWN    CLOUDY    73  72  94 CALM      29.81R
DOVER          LGT RAIN  75  75 100 CALM      29.77S
GEORGETOWN     MOCLDY    74  73  97 CALM      29.79S
EASTON         CLOUDY    75  75 100 NE3       29.83R FOG
CAMBRIDGE      CLOUDY    72  72 100 CALM      29.78S
SALISBURY      NOT AVBL
OCEAN CITY       N/A    N/A N/A N/A MISG      29.79R
WALLOPS ISLAND FAIR      75  74  96 CALM      29.78R
ACCOMACK*      FAIR      75  72  88 S6        29.77
$$

NCZ012>017-030>032-291100-
NORTH CENTRAL AND EASTERN NORTH CAROLINA

CITY           SKY/WX    TMP DP  RH WIND       PRES   REMARKS
ROANOKE RAPIDS FAIR      73  72  94 SW6       29.84R
RALEIGH        CLEAR     75  70  84 SW8       29.86F
ELIZABETH CITY CLEAR     81  72  74 SW12      29.82R
AHOSKIE*       CLEAR     74  72  91 CALM      29.84R
EDENTON*       CLEAR     83  72  68 SW9       29.84S
CURRITUCK*     CLEAR     81  73  77 SW6       29.82R
KILL DEVIL HLS CLEAR     82  73  74 SW7       29.82S
MANTEO           N/A     81  77  86 W12       29.84S
CAPE HATTERAS  CLEAR     80  77  90 SW9       29.87S
TARBORO*       FAIR      78  72  79 SW3       29.85S
GOLDSBORO      CLEAR     80  74  84 SW8       29.85S
WASHINGTON     CLEAR     79  74  86 SW9       29.86R
GREENVILLE     CLEAR     79  75  89 SW7       29.88R
NEW BERN       CLEAR     79  74  84 SW7       29.89S
WILMINGTON     CLEAR     80  76  87 SW9       29.91S
$$

VAZ048-291100-
ELSEWHERE

CITY           SKY/WX    TMP DP  RH WIND       PRES   REMARKS
HARRISBURG PA  CLOUDY    72  71  97 NW5       29.84R
BALTIMORE      CLOUDY    72  70  93 N5        29.82R
ANNAPOLIS      LGT RAIN  75  73  93 NW7       29.81R
ANDREWS AFB    MOCLDY    72  70  94 N9        29.81R
PHILADELPHIA   LGT RAIN  74  70  87 N13G21    29.80S
GREENSBORO     CLOUDY    75  70  84 W6        29.90R
ROCKY MOUNT    CLEAR     77  72  84 SW6       29.85S
$$

VAZ100-291100-
MARINE

STATION/POSITION TIME  TEMP    WIND        PRES    WAVE   SWELL
                       AIR SEA DIR/SP/G            HT/PER HT/PER
                 (UTC) (F)     (DEG/KT/KT) (MB)    (FT/S) (FT/S)
BRANDYWINE LGT   0900   72     220/  4/  4   N/A
CAPE MAY NJ      0900   74 72   80/  2/  4 1007.5R
LEWES DE         0900   73 73   CALM  /  1 1008.1R
OCEAN-CITY-INLET 0900   73 71   20/  4/  5 1008.4R
WACHAPREAGUE VA  0900   78 84  220/  3/  6 1008.0F
THOMAS POINT MD  1000   74 84  340/ 14/ 16 1010.8R
GOOSES REEF MD   0900   78 85  300/  6/  8 1009.4R   1
COVE POINT MD    0900   76     330/  8/ 11 1008.9R
SOLOMONS ISLAND  0900   77 85  300/  6/ 11   N/A
BISHOPS HEAD MD  0900   81     270/  6/  9 1008.4R
PINEY POINT MD   0900          310/ 10/ 13   N/A
POTOMAC MD       0900   79 85  260/  8/ 10 1007.1R   1/ 2
CAMBRIDGE MD     0900   75 88  110/  3/  3 1007.4R
LEWISETTA VA     0900   76 86  260/  5/  6 1007.6S
RAPPAHANNOCK LGT 0900          180/ 13/ 14 1008.4F
STINGRAY PT      0900   83 86  140/ 10/ 12 1008.2F   1/ 2
YORK RVR RNG VA  0900   83     250/ 12/ 14 1007.5S
YORKTOWN VA      0900   82 85  230/ 10/ 13 1007.7S
JAMESTOWN VA     0900   80 89  240/ 10/ 14   N/A
DOMINION TERM VA 0900   83     240/ 16/ 19 1008.4F
KIPTOPEKE VA     0900      80  240/ 11/ 12   N/A
CHES BAY BRIDGE  0900   83 78  220/ 19/ 21 1008.0F
CAPE HENRY VA    0900   83     230/  9/ 14   N/A
WILLOUBY STN VA  0900   83     230/ 19/ 22   N/A
CAPE HENRY BUOY  0912      77                N/A     2/ 4
1ST LANDING BUOY 0900   83 80  250/ 16/ 19 1007.9F   2/ 3
CAPE CHARLES BUO 0926      75                N/A     2/ 4
OFFSHORE WE BUOY 0921      82                N/A     3/ 4
64NM E OF VA BCH 0950   83 81  220/ 16/ 17 1009.0R   3/ 5   2/ 7
DUCK PIER NC     0900   84 67  230/ 14/ 17 1009.2F
44100 DUCK FRF   0905      80                N/A     2/ 6
44056 DUCK FRF   0911      73                N/A     1/ 8
OREGON INLET NC  0900   84 83  230/ 15/ 19 1010.2F
HATTERAS NC      0900   81 83  240/ 10/ 13 1011.1S
DIAMOND SHLS NC  0950   84 85  250/ 17/ 21 1011.3R   4/ 6   2/ 9
CAPE LOOKOUT NC  1000   83     240/ 12/ 15 1011.9R
$$



USA.gov is the U.S. government's official web portal to all federal, state and local government web resources and services.